Location: Colonia Mina de C?rbuni
(46.1667°N, 22.7167°E)
Time: 07:24:30
(UTC+00:00)

Vanguard 2 - Pass Details

Date: 16 April 2024
Orbit: 552 x 2914 km, 32.9° (Epoch: 24 May)

Event Time Altitude Azimuth Distance (km) Brightness Sun altitude
Rises 04:27:25 0° 261° (W) 6,745 11.6 7.1°
Reaches altitude 10° 04:32:09 10° 256° (WSW) 5,736 11.4 8.0°
Maximum altitude 04:48:16 47° 191° (S) 3,118 10.6 10.7°
Drops below altitude 10° 05:00:15 10° 122° (ESE) 4,346 12.5 12.8°
Sets 05:03:18 0° 117° (ESE) 5,053 12.9 13.3°
